[[{"header":{"parameterUnit":"m.s-1","parameterCategory":1,"la1":30.2991,"la2":30.254,"lo1":-89.0895,"lo2":-89.0444,"dy":0.0017,"dx":0.0017,"nx":28,"ny":28,"refTime":"2025-07-19T03:00:00:Z","depth":0,"parameterNumber":2,"parameterNumberName":"U-component_of_WINDS"},"data":[0,0,0,0,0,0,0,0,0,0,0,0,0,0,0,0,0,0,0,0,0,0,0,0,0,0,0,0,0,0,0,0,0,0,0,0,0,0,0,0,0,0,0,0,0,0,0,0,0,0,0,0,0,0,0,0,0,0,2.134,2.1341,0,2.1435,2.1436,2.1437,2.1436,2.1434,2.1433,2.1432,2.1529,2.1532,2.1536,0,0,0,0,0,0,0,0,0,0,0,0,0,2.1156,2.1159,2.134,2.1341,2.1343,2.1435,2.1436,2.1437,2.1436,2.1434,2.1433,2.1431,2.1528,2.1532,2.1536,0,0,0,0,0,0,0,0,0,0,0,0,0,2.1242,2.1161,2.134,2.1353,2.1355,2.1434,2.1436,2.1438,2.1436,2.1434,2.1432,2.1431,2.1526,2.1532,2.1537,2.161,0,0,2.1554,2.1557,0,0,0,0,0,0,0,0,2.1237,2.1249,2.135,2.1352,2.1355,2.1422,2.1407,2.1495,2.1437,2.1405,2.1432,2.143,2.1495,2.1503,2.1525,2.1614,2.1618,2.1555,2.1558,2.1561,2.1562,0,0,0,0,0,0,0,2.1231,2.1245,2.1378,2.1351,2.1354,2.1353,2.1363,2.1423,2.1459,2.1408,2.1408,2.1419,2.1496,2.1519,2.1527,2.162,2.1555,2.156,2.1563,2.1565,2.177,2.1772,0,0,0,0,0,0,2.1223,2.124,2.1375,2.1381,2.129,2.1358,2.137,2.1402,2.1459,2.1466,2.1421,2.1419,2.1511,2.152,2.153,2.1616,2.1561,2.1566,2.1569,2.1768,2.1771,2.1773,0,0,0,0,0,0,2.1219,2.1235,2.1371,2.131,2.1327,2.1363,2.14,2.1405,2.1428,2.1469,2.1475,2.1438,2.1509,2.1522,2.1589,2.162,2.1568,2.1574,2.1766,2.1769,2.1772,2.1791,0,0,0,0,0,0,2.1213,2.1233,2.1262,2.1311,2.1331,2.1429,2.1402,2.1408,2.1438,2.1437,2.1487,2.1493,2.1509,2.1581,2.1595,2.1627,2.1578,2.1763,2.1767,2.1771,2.1788,2.1794,2.18,0,0,0,0,0,2.1207,2.1264,2.1263,2.128,2.1367,2.1431,2.1442,2.1459,2.1441,2.1469,2.1494,2.1492,2.1615,2.1588,2.1603,2.1637,2.1761,2.1766,2.1771,2.1785,2.1793,2.18,0,0,0,0,0,0,2.1219,2.1271,2.1271,2.1346,2.1384,2.143,2.1467,2.1467,2.1511,2.1508,2.1527,2.1538,2.1604,2.1628,2.1597,2.1709,2.1686,2.1694,2.1691,2.1699,2.1705,2.1697,2.1583,0,0,0,0,0,2.123,2.1278,2.1321,2.1383,2.1402,2.1431,2.1459,2.1469,2.1509,2.1525,2.1555,2.1594,2.1641,2.1672,2.1717,2.1791,2.1801,2.1822,2.1828,2.1833,2.1839,2.1877,2.1886,2.1788,2.1788,2.1788,0,0,2.1254,2.1288,2.1317,2.1386,2.1416,2.1464,2.1444,2.1497,2.1531,2.1533,2.1597,2.162,2.1665,2.1735,2.1767,2.1756,2.1869,2.1839,2.1843,2.1846,2.1883,2.1892,2.19,2.1791,2.1791,2.179,0,0,2.1321,2.1353,2.1406,2.1437,2.1483,2.1502,2.1515,2.1561,2.1576,2.1641,2.1642,2.1684,2.1765,2.1796,2.1822,2.1898,2.1896,2.1913,2.1944,2.198,2.1988,2.1995,2.2019,2.2028,2.1919,2.1919,2.1919,0,2.1345,2.1417,2.1434,2.1485,2.1514,2.1517,2.157,2.1599,2.1658,2.1677,2.1665,2.1765,2.1795,2.187,2.1889,2.1911,2.1924,2.1906,2.1986,2.1993,2.1999,2.2023,2.2032,2.1921,2.192,2.192,2.192,0,2.1442,2.1492,2.153,2.1585,2.1618,2.167,2.1694,2.1726,2.1732,2.1752,2.1816,2.1852,2.1904,2.1923,2.193,2.1999,2.199,2.1982,2.1958,2.201,2.2032,2.2041,2.1923,2.1922,2.1922,2.1921,0,0,2.152,2.1582,2.1595,2.1619,2.1669,2.1708,2.1759,2.1809,2.1834,2.1875,2.1916,2.1984,2.1976,2.2005,2.2016,2.2048,2.2102,2.2035,2.2037,2.2044,2.2177,2.2181,2.2191,2.2102,2.2104,2.2105,2.2172,0,2.159,2.168,2.1696,2.1775,2.182,2.1822,2.1867,2.1901,2.1921,2.1961,2.1982,2.2029,2.2016,2.2033,2.2065,2.2089,2.2129,2.2085,2.2139,2.2141,2.2126,2.2203,2.2209,2.227,2.2181,2.2182,2.2184,0,2.1684,2.1725,2.1808,2.1849,2.1868,2.1908,2.1953,2.1992,2.2031,2.2043,2.2075,2.2081,2.2133,2.2108,2.2178,2.2148,2.2171,2.2186,2.2189,2.2193,2.2164,2.2207,2.229,2.2298,2.2198,2.2197,2.2196,0,2.1728,2.1804,2.1863,2.1884,2.1934,2.1961,2.1983,2.202,2.2048,2.2088,2.2106,2.2152,2.2177,2.2211,2.2229,2.221,2.2297,2.2275,2.2306,2.2306,2.2323,2.2322,2.2409,2.2343,2.2342,2.2342,2.2342,0,2.1803,2.1853,2.1883,2.1919,2.1974,2.1991,2.2045,2.2067,2.2099,2.2139,2.2145,2.2181,2.2203,2.2243,2.2257,2.2311,2.2323,2.2333,2.2336,2.2331,2.2329,2.2345,2.234,2.2345,2.2344,2.2344,2.2343,0,2.1861,2.1884,2.1947,2.1989,2.2001,2.2039,2.2075,2.2109,2.2128,2.2177,2.2189,2.2219,2.2265,2.2287,2.2345,2.2354,2.2415,2.2417,2.2402,2.2402,2.2432,2.2428,2.253,2.2543,2.2471,2.2471,2.2472,0,2.1907,2.1945,2.199,2.2016,2.2039,2.2082,2.211,2.2128,2.2157,2.2203,2.2231,2.2277,2.2315,2.2389,2.2415,2.2459,2.246,2.2492,2.2466,2.2459,2.2457,2.2453,2.2456,2.2496,2.2497,2.2498,2.2498,0,2.1984,2.1992,2.2033,2.2076,2.2109,2.2144,2.2179,2.22,2.2224,2.2256,2.2303,2.2332,2.239,2.2435,2.248,2.2502,2.2503,2.2507,2.2516,2.251,2.2499,2.2502,2.2412,2.2504,2.2503,2.2503,2.2502,2.2502,2.2035,2.2068,2.2104,2.2148,2.2176,2.2207,2.224,2.2263,2.2302,2.235,2.2359,2.2408,2.2444,2.2504,2.2528,2.2566,2.2558,2.2572,2.2575,2.2578,2.2578,2.2494,2.2574,2.2574,2.2574,2.2574,2.2574,0,2.211,2.2133,2.2173,2.222,2.2254,2.2253,2.229,2.2318,2.2362,2.2395,2.2431,2.2484,2.2527,2.2557,2.26,2.2625,2.2626,2.2635,2.2633,2.2637,2.2584,2.257,2.2633,2.2633,2.2633,2.2633,2.2633,2.2633,2.2153,2.2207,2.2219,2.2287,2.2309,2.2357,2.2378,2.2407,2.2433,2.2491,2.2527,2.2545,2.2576,2.2622,2.2661,2.2668,2.2683,2.2692,2.2699,2.2648,2.2641,2.2635,2.2622,2.2696,2.2696,2.2749,2.2749,2.2749]},{"header":{"parameterUnit":"m.s-1","parameterCategory":1,"la1":30.2991,"la2":30.254,"lo1":-89.0895,"lo2":-89.0444,"dy":0.0017,"dx":0.0017,"nx":28,"ny":28,"refTime":"2025-07-19T03:00:00:Z","depth":0,"parameterNumber":3,"parameterNumberName":"V-component_of_WINDS"},"data":[0,0,0,0,0,0,0,0,0,0,0,0,0,0,0,0,0,0,0,0,0,0,0,0,0,0,0,0,0,0,0,0,0,0,0,0,0,0,0,0,0,0,0,0,0,0,0,0,0,0,0,0,0,0,0,0,0,0,0.8858,0.8859,0,0.8901,0.8901,0.8902,0.8881,0.888,0.8879,0.8878,0.8922,0.8925,0.8927,0,0,0,0,0,0,0,0,0,0,0,0,0,0.8759,0.8761,0.8858,0.8859,0.8859,0.8901,0.8901,0.8902,0.8881,0.888,0.8878,0.8877,0.8922,0.8924,0.8927,0,0,0,0,0,0,0,0,0,0,0,0,0,0.8802,0.8761,0.8858,0.8854,0.8854,0.8901,0.8902,0.8902,0.8881,0.888,0.8878,0.8877,0.8921,0.8924,0.8927,0.8981,0,0,0.8937,0.8939,0,0,0,0,0,0,0,0,0.8799,0.8805,0.8854,0.8854,0.8854,0.8884,0.8883,0.8929,0.8882,0.8871,0.8878,0.8876,0.8911,0.8915,0.8927,0.8983,0.8985,0.8938,0.894,0.8941,0.8942,0,0,0,0,0,0,0,0.8796,0.8803,0.8875,0.8855,0.8855,0.885,0.8854,0.8891,0.89,0.8872,0.887,0.8876,0.8911,0.8924,0.8928,0.8986,0.8938,0.8941,0.8943,0.8944,0.9087,0.9089,0,0,0,0,0,0,0.8793,0.8801,0.8874,0.8876,0.8822,0.8853,0.8858,0.8876,0.8899,0.8901,0.8877,0.8875,0.8919,0.8924,0.8929,0.8993,0.8941,0.8944,0.8946,0.9085,0.9088,0.9089,0,0,0,0,0,0,0.8791,0.88,0.8872,0.8838,0.8847,0.8856,0.8877,0.8878,0.8891,0.8903,0.8905,0.8889,0.8918,0.8924,0.8968,0.8994,0.8946,0.8949,0.9083,0.9086,0.9088,0.9122,0,0,0,0,0,0,0.8789,0.88,0.882,0.8839,0.8849,0.8911,0.8879,0.888,0.8896,0.8893,0.8914,0.8916,0.8917,0.8963,0.8971,0.8998,0.8951,0.9081,0.9084,0.9088,0.9118,0.9125,0.9131,0,0,0,0,0,0.8785,0.8828,0.8821,0.883,0.8875,0.8912,0.8918,0.8917,0.8899,0.8919,0.8927,0.8916,0.899,0.8968,0.8977,0.9005,0.9079,0.9083,0.9087,0.9115,0.9124,0.9131,0,0,0,0,0,0,0.8813,0.8831,0.8823,0.8874,0.8892,0.8909,0.8935,0.8926,0.895,0.8946,0.8945,0.8949,0.8995,0.9004,0.8979,0.9057,0.9032,0.9038,0.905,0.9058,0.9064,0.9061,0.8954,0,0,0,0,0,0.8825,0.8854,0.8868,0.8911,0.892,0.8926,0.8942,0.894,0.8958,0.8966,0.8977,0.8995,0.9022,0.9041,0.9066,0.9119,0.9123,0.9143,0.9149,0.9154,0.916,0.9187,0.9196,0.9103,0.9103,0.9103,0,0,0.8851,0.8864,0.8882,0.8917,0.893,0.896,0.8932,0.8965,0.8987,0.8971,0.9012,0.9021,0.9041,0.9089,0.9111,0.9099,0.9186,0.9159,0.9163,0.9166,0.9192,0.9201,0.9209,0.9106,0.9105,0.9105,0,0,0.8912,0.8925,0.8962,0.8975,0.8996,0.8999,0.9008,0.9026,0.9031,0.9072,0.906,0.9086,0.9133,0.9148,0.9162,0.9226,0.9216,0.9235,0.9268,0.9295,0.9303,0.9309,0.9332,0.934,0.924,0.924,0.924,0,0.8941,0.8985,0.8982,0.9015,0.903,0.9016,0.9053,0.9067,0.9095,0.9106,0.9091,0.9149,0.9162,0.9213,0.9228,0.924,0.925,0.9233,0.9302,0.9308,0.9314,0.9336,0.9345,0.9242,0.9242,0.9242,0.9241,0,0.9019,0.905,0.9077,0.9104,0.9122,0.9157,0.9159,0.9178,0.9174,0.9178,0.922,0.9235,0.9263,0.9274,0.9271,0.9325,0.9316,0.9302,0.9276,0.9325,0.9346,0.9354,0.9245,0.9244,0.9244,0.9243,0,0,0.9101,0.9124,0.9134,0.9146,0.9166,0.9189,0.9223,0.925,0.9266,0.9285,0.9313,0.9353,0.9339,0.9355,0.9352,0.9376,0.9426,0.9359,0.9359,0.937,0.9485,0.9496,0.9506,0.9419,0.942,0.9422,0.9483,0,0.9164,0.9223,0.922,0.9276,0.9303,0.9289,0.9318,0.9334,0.9339,0.9363,0.9368,0.9396,0.9376,0.9385,0.9408,0.9415,0.9449,0.941,0.9445,0.9446,0.9441,0.9516,0.9528,0.9586,0.9491,0.9492,0.9493,0,0.9245,0.9266,0.9324,0.9339,0.935,0.9377,0.94,0.9423,0.944,0.9442,0.9458,0.9452,0.9486,0.9458,0.9505,0.9479,0.9493,0.9498,0.95,0.9504,0.9473,0.9522,0.9604,0.9613,0.9506,0.9505,0.9504,0,0.9298,0.9341,0.9381,0.9391,0.9409,0.9428,0.9437,0.9452,0.9468,0.9489,0.9499,0.9523,0.9537,0.9556,0.9556,0.9536,0.9603,0.9575,0.9605,0.9605,0.962,0.9619,0.9706,0.9629,0.9629,0.9628,0.9628,0,0.9369,0.9404,0.9405,0.9429,0.9469,0.9465,0.9504,0.9511,0.9524,0.955,0.9539,0.9563,0.9562,0.9586,0.9586,0.9624,0.963,0.9633,0.9632,0.9634,0.9634,0.9643,0.9639,0.9631,0.963,0.963,0.9629,0,0.9435,0.9437,0.9479,0.9493,0.9497,0.9526,0.9537,0.956,0.9563,0.9596,0.9603,0.9608,0.9636,0.9638,0.967,0.967,0.9716,0.9712,0.9711,0.971,0.9739,0.9737,0.9835,0.9848,0.9763,0.9763,0.9764,0,0.948,0.9507,0.9523,0.9539,0.9549,0.9575,0.959,0.9588,0.9604,0.9625,0.9645,0.9672,0.9693,0.9738,0.9745,0.9769,0.9765,0.9798,0.9769,0.9769,0.9765,0.9764,0.9766,0.9804,0.9805,0.9806,0.9806,0,0.956,0.9559,0.9582,0.9604,0.9623,0.9641,0.9658,0.9672,0.9671,0.969,0.9718,0.9734,0.9767,0.9793,0.9816,0.9825,0.9816,0.9815,0.9823,0.9825,0.9824,0.9825,0.9726,0.9813,0.9812,0.9812,0.9812,0.9811,0.9617,0.964,0.9654,0.968,0.9692,0.9707,0.9729,0.9735,0.9758,0.9783,0.978,0.9811,0.9826,0.9857,0.9867,0.9891,0.988,0.9892,0.9895,0.9898,0.9901,0.9819,0.9895,0.9895,0.9895,0.9895,0.9895,0,0.9695,0.9704,0.9727,0.975,0.977,0.9758,0.9776,0.9793,0.982,0.9835,0.9856,0.9887,0.9912,0.9921,0.9945,0.9963,0.9959,0.9969,0.9968,0.997,0.991,0.99,0.9972,0.9972,0.9972,0.9972,0.9972,0.9972,0.9739,0.9777,0.9777,0.9821,0.9828,0.9858,0.9869,0.9883,0.9895,0.993,0.9951,0.9956,0.9968,0.9993,1.0015,1.0017,1.0026,1.0038,1.0038,0.9982,0.9974,0.9967,0.9958,1.0041,1.0041,1.0097,1.0097,1.0098]}]]